[[{"header":{"parameterUnit":"m.s-1","parameterCategory":1,"la1":30.2991,"la2":30.254,"lo1":-89.0895,"lo2":-89.0444,"dy":0.0017,"dx":0.0017,"nx":28,"ny":28,"refTime":"2024-07-01T21:00:00:Z","depth":0,"parameterNumber":2,"parameterNumberName":"U-component_of_WINDS"},"data":[0,0,0,0,0,0,0,0,0,0,0,0,0,0,0,0,0,0,0,0,0,0,0,0,0,0,0,0,0,0,0,0,0,0,0,0,0,0,0,0,0,0,0,0,0,0,0,0,0,0,0,0,0,0,0,0,0,0,-1.2605,-1.2604,0,-1.2579,-1.2579,-1.2579,-1.2616,-1.2617,-1.2618,-1.262,-1.2592,-1.259,-1.2588,0,0,0,0,0,0,0,0,0,0,0,0,0,-1.2686,-1.2685,-1.2605,-1.2604,-1.2604,-1.2579,-1.2579,-1.2578,-1.2615,-1.2617,-1.2619,-1.262,-1.2593,-1.2591,-1.2588,0,0,0,0,0,0,0,0,0,0,0,0,0,-1.2655,-1.2684,-1.2605,-1.262,-1.2621,-1.2579,-1.2579,-1.2578,-1.2615,-1.2617,-1.2619,-1.2621,-1.2594,-1.2591,-1.2588,-1.253,0,0,-1.2579,-1.2578,0,0,0,0,0,0,0,0,-1.2656,-1.2652,-1.2618,-1.2618,-1.262,-1.2603,-1.2598,-1.2562,-1.2615,-1.2617,-1.262,-1.2622,-1.2594,-1.2591,-1.2582,-1.2529,-1.2528,-1.2579,-1.2577,-1.2576,-1.2575,0,0,0,0,0,0,0,-1.2659,-1.2653,-1.2595,-1.2617,-1.2618,-1.2628,-1.2625,-1.2591,-1.2595,-1.2617,-1.262,-1.2616,-1.2595,-1.2585,-1.2582,-1.2528,-1.2579,-1.2576,-1.2574,-1.2573,-1.2429,-1.2427,0,0,0,0,0,0,-1.2659,-1.2655,-1.2595,-1.2594,-1.2643,-1.2625,-1.2622,-1.2606,-1.2595,-1.2596,-1.2615,-1.2618,-1.2589,-1.2585,-1.2581,-1.2514,-1.2576,-1.2573,-1.2571,-1.2431,-1.2428,-1.2426,0,0,0,0,0,0,-1.2661,-1.2653,-1.2596,-1.2625,-1.2618,-1.2621,-1.2603,-1.2605,-1.2594,-1.2593,-1.2594,-1.2603,-1.259,-1.2585,-1.2543,-1.2513,-1.2572,-1.2569,-1.2433,-1.243,-1.2427,-1.2378,0,0,0,0,0,0,-1.2663,-1.2654,-1.2631,-1.2624,-1.2617,-1.2559,-1.2601,-1.2603,-1.2589,-1.2594,-1.2583,-1.2583,-1.2591,-1.2547,-1.254,-1.251,-1.2567,-1.2436,-1.2432,-1.2428,-1.2383,-1.2374,-1.2367,0,0,0,0,0,-1.2666,-1.2618,-1.263,-1.2623,-1.2589,-1.2557,-1.2553,-1.2563,-1.2587,-1.2565,-1.2565,-1.2584,-1.2518,-1.2543,-1.2535,-1.2504,-1.2438,-1.2433,-1.2428,-1.2386,-1.2376,-1.2367,0,0,0,0,0,0,-1.2621,-1.2617,-1.2631,-1.2579,-1.2568,-1.2563,-1.2535,-1.2551,-1.2533,-1.2537,-1.2551,-1.2549,-1.2504,-1.25,-1.2528,-1.2449,-1.2482,-1.2475,-1.2453,-1.2442,-1.2435,-1.2436,-1.2564,0,0,0,0,0,-1.2605,-1.2579,-1.2578,-1.2533,-1.2527,-1.2532,-1.2518,-1.2528,-1.2517,-1.2512,-1.2509,-1.2497,-1.2474,-1.2458,-1.2437,-1.2383,-1.2382,-1.2358,-1.235,-1.2343,-1.2337,-1.231,-1.2299,-1.241,-1.241,-1.2411,0,0,-1.2572,-1.2567,-1.255,-1.2524,-1.2516,-1.249,-1.2528,-1.2497,-1.2478,-1.2507,-1.2468,-1.2465,-1.2453,-1.2406,-1.2384,-1.2401,-1.2307,-1.2337,-1.2332,-1.2329,-1.2304,-1.2293,-1.2284,-1.2407,-1.2408,-1.2408,0,0,-1.2498,-1.2491,-1.2454,-1.2446,-1.2435,-1.2439,-1.243,-1.2424,-1.2423,-1.2384,-1.2406,-1.2384,-1.2343,-1.2334,-1.2324,-1.225,-1.2267,-1.2243,-1.22,-1.2173,-1.2164,-1.2157,-1.213,-1.2121,-1.2237,-1.2237,-1.2237,0,-1.2458,-1.2418,-1.2432,-1.2401,-1.239,-1.2417,-1.2379,-1.2371,-1.2353,-1.2344,-1.2363,-1.2315,-1.2309,-1.226,-1.2242,-1.2233,-1.2224,-1.2243,-1.2165,-1.2157,-1.215,-1.2125,-1.2115,-1.2234,-1.2234,-1.2235,-1.2235,0,-1.237,-1.2343,-1.2314,-1.2297,-1.2283,-1.2248,-1.2257,-1.2241,-1.2253,-1.2255,-1.2216,-1.221,-1.2188,-1.2178,-1.2188,-1.2131,-1.2142,-1.2163,-1.2196,-1.2136,-1.2113,-1.2104,-1.223,-1.2231,-1.2232,-1.2233,0,0,-1.2264,-1.2258,-1.2247,-1.224,-1.2231,-1.221,-1.2178,-1.2158,-1.2144,-1.2132,-1.2105,-1.2072,-1.2092,-1.2081,-1.2091,-1.2067,-1.201,-1.2091,-1.2091,-1.2076,-1.1947,-1.193,-1.1919,-1.2022,-1.202,-1.2019,-1.1948,0,-1.2191,-1.2135,-1.2148,-1.2093,-1.2069,-1.2095,-1.2068,-1.2059,-1.2061,-1.2041,-1.2044,-1.202,-1.2048,-1.2042,-1.202,-1.2021,-1.1984,-1.2027,-1.1997,-1.1996,-1.1998,-1.1907,-1.1889,-1.1822,-1.1939,-1.1937,-1.1936,0,-1.2097,-1.2082,-1.2025,-1.2022,-1.2012,-1.1986,-1.197,-1.195,-1.1942,-1.1946,-1.1935,-1.195,-1.1919,-1.1954,-1.1911,-1.194,-1.1929,-1.1929,-1.1926,-1.1923,-1.1961,-1.1901,-1.1801,-1.1791,-1.1922,-1.1923,-1.1924,0,-1.2026,-1.1992,-1.1953,-1.1947,-1.1942,-1.1924,-1.1921,-1.1915,-1.1903,-1.1888,-1.1881,-1.1863,-1.1853,-1.1839,-1.185,-1.1874,-1.1806,-1.1842,-1.1808,-1.1807,-1.1791,-1.1791,-1.1688,-1.1785,-1.1785,-1.1785,-1.1786,0,-1.1941,-1.1905,-1.1922,-1.1898,-1.1859,-1.1875,-1.1836,-1.1836,-1.1831,-1.1808,-1.1831,-1.1809,-1.1824,-1.1804,-1.1812,-1.1776,-1.1772,-1.1774,-1.1776,-1.1771,-1.1771,-1.1763,-1.1768,-1.1783,-1.1783,-1.1784,-1.1784,0,-1.1854,-1.1864,-1.1824,-1.1824,-1.1823,-1.1794,-1.1794,-1.1772,-1.1777,-1.1748,-1.1743,-1.175,-1.1728,-1.1737,-1.1713,-1.1719,-1.1673,-1.1682,-1.1675,-1.1677,-1.1643,-1.1646,-1.153,-1.1516,-1.1623,-1.1622,-1.1621,0,-1.18,-1.1773,-1.177,-1.1757,-1.1753,-1.1731,-1.1719,-1.1735,-1.1722,-1.1712,-1.1691,-1.1671,-1.1655,-1.1619,-1.1622,-1.1604,-1.1612,-1.1573,-1.161,-1.1606,-1.1612,-1.1613,-1.161,-1.1565,-1.1564,-1.1563,-1.1562,0,-1.1702,-1.1708,-1.1691,-1.1675,-1.166,-1.1649,-1.1639,-1.1627,-1.1642,-1.1626,-1.1604,-1.1592,-1.1569,-1.1548,-1.1533,-1.1531,-1.1549,-1.1551,-1.1542,-1.1536,-1.1534,-1.1535,-1.1655,-1.1553,-1.1554,-1.1555,-1.1555,-1.1556,-1.1629,-1.1607,-1.1602,-1.1582,-1.1577,-1.1568,-1.1548,-1.1551,-1.1533,-1.1515,-1.1526,-1.15,-1.1495,-1.1476,-1.1471,-1.1452,-1.1467,-1.1454,-1.1451,-1.1447,-1.1443,-1.1538,-1.1449,-1.1449,-1.145,-1.145,-1.145,0,-1.1532,-1.1531,-1.1513,-1.1499,-1.1483,-1.1504,-1.1494,-1.148,-1.1457,-1.145,-1.1435,-1.1411,-1.1392,-1.1394,-1.1377,-1.1361,-1.1369,-1.1356,-1.1357,-1.1356,-1.143,-1.1439,-1.135,-1.135,-1.135,-1.135,-1.135,-1.135,-1.148,-1.1444,-1.1451,-1.1413,-1.1412,-1.1387,-1.138,-1.1372,-1.1367,-1.1339,-1.1323,-1.1326,-1.1323,-1.1307,-1.129,-1.1292,-1.1284,-1.1268,-1.1272,-1.1341,-1.1351,-1.136,-1.1369,-1.1266,-1.1266,-1.12,-1.1199,-1.1199]},{"header":{"parameterUnit":"m.s-1","parameterCategory":1,"la1":30.2991,"la2":30.254,"lo1":-89.0895,"lo2":-89.0444,"dy":0.0017,"dx":0.0017,"nx":28,"ny":28,"refTime":"2024-07-01T21:00:00:Z","depth":0,"parameterNumber":3,"parameterNumberName":"V-component_of_WINDS"},"data":[0,0,0,0,0,0,0,0,0,0,0,0,0,0,0,0,0,0,0,0,0,0,0,0,0,0,0,0,0,0,0,0,0,0,0,0,0,0,0,0,0,0,0,0,0,0,0,0,0,0,0,0,0,0,0,0,0,0,4.2984,4.2983,0,4.2827,4.2825,4.2823,4.2754,4.2754,4.2754,4.2755,4.2581,4.2576,4.2571,0,0,0,0,0,0,0,0,0,0,0,0,0,4.3215,4.3211,4.2984,4.2983,4.2981,4.2827,4.2825,4.2823,4.2754,4.2754,4.2754,4.2755,4.2582,4.2577,4.2571,0,0,0,0,0,0,0,0,0,0,0,0,0,4.3092,4.321,4.2985,4.2928,4.2921,4.2827,4.2825,4.2822,4.2754,4.2754,4.2755,4.2755,4.2584,4.2577,4.257,4.2517,0,0,4.2548,4.2545,0,0,0,0,0,0,0,0,4.3099,4.3083,4.2938,4.2932,4.2924,4.2811,4.2842,4.2719,4.2754,4.2817,4.2755,4.2755,4.2656,4.2643,4.2612,4.2509,4.2501,4.2547,4.2543,4.2539,4.2537,0,0,0,0,0,0,0,4.3107,4.3089,4.2922,4.2936,4.2928,4.2907,4.289,4.2819,4.2736,4.2811,4.2806,4.2789,4.2652,4.2619,4.2607,4.2499,4.2547,4.2541,4.2536,4.2533,4.2344,4.2343,0,0,0,0,0,0,4.3127,4.3097,4.2927,4.2917,4.3015,4.2902,4.2883,4.2846,4.2737,4.272,4.2789,4.2786,4.2632,4.2616,4.2601,4.2532,4.254,4.2533,4.2528,4.2344,4.2343,4.2343,0,0,0,0,0,0,4.3132,4.3112,4.2933,4.3006,4.2981,4.2898,4.2857,4.2843,4.281,4.272,4.2703,4.2771,4.2631,4.2611,4.2539,4.2525,4.2529,4.2523,4.2345,4.2344,4.2343,4.2393,0,0,0,0,0,0,4.3139,4.3115,4.3096,4.3006,4.2978,4.2877,4.2856,4.284,4.2799,4.2795,4.2699,4.2683,4.263,4.2551,4.2532,4.2515,4.2517,4.2346,4.2345,4.2343,4.2392,4.2394,4.2396,0,0,0,0,0,4.3147,4.3114,4.3096,4.3075,4.2954,4.2877,4.286,4.2803,4.2799,4.2778,4.2719,4.2686,4.253,4.2544,4.2522,4.2503,4.2346,4.2345,4.2344,4.2392,4.2394,4.2395,0,0,0,0,0,0,4.32,4.3101,4.308,4.3017,4.2956,4.2865,4.2837,4.2807,4.2744,4.2741,4.267,4.2649,4.2583,4.2535,4.2552,4.2445,4.2435,4.2429,4.2479,4.248,4.2482,4.2494,4.2511,0,0,0,0,0,4.3205,4.3155,4.3069,4.3021,4.2993,4.2921,4.2885,4.2847,4.278,4.2753,4.2689,4.2622,4.2557,4.2516,4.2452,4.2386,4.2363,4.2361,4.2363,4.2365,4.236,4.2321,4.2319,4.2338,4.2338,4.2338,0,0,4.3213,4.3153,4.3125,4.3031,4.2979,4.2926,4.2899,4.2843,4.2802,4.2742,4.2672,4.2623,4.2543,4.2474,4.244,4.2432,4.235,4.2363,4.2365,4.2359,4.2319,4.2317,4.2316,4.2337,4.2337,4.2337,0,0,4.3201,4.3151,4.3107,4.3057,4.2981,4.2934,4.2923,4.2837,4.2804,4.2733,4.2688,4.2635,4.2526,4.2471,4.2429,4.2398,4.2364,4.2378,4.2386,4.2348,4.2347,4.2345,4.2333,4.233,4.2374,4.2374,4.2374,0,4.3219,4.3141,4.3086,4.3034,4.2993,4.2942,4.2894,4.2847,4.2752,4.2724,4.2718,4.2581,4.2523,4.244,4.2433,4.2401,4.2384,4.2388,4.2352,4.235,4.2347,4.2335,4.2331,4.2376,4.2376,4.2376,4.2376,0,4.3167,4.3113,4.3085,4.3001,4.2957,4.2907,4.2841,4.2802,4.2769,4.2721,4.2648,4.2578,4.2499,4.2476,4.244,4.2388,4.2386,4.2367,4.2355,4.2349,4.2336,4.2331,4.238,4.2379,4.2378,4.2378,0,0,4.3182,4.307,4.3061,4.3022,4.2936,4.289,4.2837,4.2764,4.2732,4.2669,4.2621,4.2531,4.2513,4.2465,4.2423,4.2391,4.237,4.2375,4.2372,4.2376,4.2307,4.2321,4.2317,4.2348,4.2347,4.2346,4.2313,0,4.3157,4.3065,4.3015,4.2941,4.289,4.2841,4.2794,4.2734,4.2689,4.2635,4.2582,4.252,4.2502,4.2473,4.2439,4.238,4.2355,4.2382,4.2299,4.2297,4.2321,4.231,4.2325,4.2298,4.2308,4.2307,4.2306,0,4.3116,4.3059,4.2982,4.2903,4.2879,4.2839,4.2768,4.2719,4.2649,4.2618,4.2566,4.2525,4.2463,4.2458,4.2371,4.239,4.2353,4.2319,4.2317,4.2306,4.2301,4.2298,4.2288,4.2284,4.2298,4.2299,4.2299,0,4.3135,4.3037,4.2979,4.2947,4.2853,4.2826,4.2785,4.2716,4.2676,4.2612,4.2585,4.2514,4.2475,4.2419,4.2359,4.236,4.2277,4.2266,4.2247,4.2249,4.2231,4.2232,4.2213,4.2209,4.2209,4.2209,4.2209,0,4.3112,4.3067,4.2987,4.2951,4.2898,4.2839,4.2787,4.2741,4.2681,4.2632,4.2584,4.2539,4.2463,4.2407,4.2359,4.2294,4.2276,4.2247,4.2234,4.2251,4.2254,4.2225,4.2224,4.2208,4.2208,4.2208,4.2208,0,4.3123,4.3068,4.3001,4.2919,4.2897,4.2862,4.279,4.2751,4.2704,4.2643,4.2625,4.2549,4.2482,4.2417,4.2324,4.2292,4.2227,4.221,4.2252,4.2245,4.2229,4.2231,4.2189,4.218,4.2183,4.2183,4.2183,0,4.3112,4.3077,4.2993,4.296,4.2921,4.2867,4.2827,4.2767,4.2726,4.2645,4.2616,4.2546,4.2486,4.2379,4.2313,4.2242,4.2223,4.2214,4.2212,4.223,4.2222,4.2225,4.2221,4.2215,4.2215,4.2215,4.2215,0,4.3099,4.3074,4.302,4.2957,4.2912,4.2858,4.2802,4.2776,4.2705,4.2661,4.2594,4.2548,4.2457,4.2386,4.2308,4.2261,4.2225,4.2217,4.2209,4.2224,4.225,4.2235,4.2255,4.2218,4.2217,4.2217,4.2217,4.2217,4.3097,4.3064,4.3001,4.2942,4.2895,4.2845,4.2805,4.2754,4.2699,4.2623,4.2589,4.2521,4.2451,4.2343,4.2297,4.224,4.2231,4.2219,4.2216,4.2214,4.2217,4.2261,4.2225,4.2225,4.2225,4.2225,4.2225,0,4.3081,4.3039,4.2986,4.2912,4.2865,4.2841,4.2778,4.274,4.2682,4.2622,4.2566,4.2488,4.242,4.235,4.2277,4.2245,4.2227,4.2228,4.2229,4.2218,4.2229,4.2244,4.2244,4.2244,4.2244,4.2244,4.2244,4.2244,4.3067,4.301,4.2978,4.2895,4.2851,4.2788,4.2754,4.2706,4.2658,4.2575,4.2521,4.2477,4.2412,4.2334,4.227,4.2251,4.2226,4.2231,4.2207,4.2219,4.2217,4.2216,4.223,4.2227,4.2227,4.2201,4.22,4.22]}]]